Regional Weather Roundup
Issued by NWS

Home | Current Version | Previous Version | Graphics & Text | Print | Product List | Glossary Off
Versions: 1 2 3 4 5 6 7 8 9 10 11 12 13 14 15 16 17 18 19 20 21 22 23 24 25 26 27 28 29 30 31 32 33 34 35 36 37 38 39 40 41 42 43 44 45 46 47 48 49 50

000
ASUS43 KLSX 200710
RWRMO

WEATHER SUMMARY FOR MISSOURI
NATIONAL WEATHER SERVICE SPRINGFIELD MO
100 AM CST MON FEB 20 2017

NOTE: "FAIR" INDICATES FEW OR NO CLOUDS BELOW 12,000 FEET WITH NO
       SIGNIFICANT WEATHER AND/OR OBSTRUCTIONS TO VISIBILITY.
       CURRENT SKY AND/OR WEATHER CONDITIONS ARE NOT AVAILABLE FOR
       CHILLICOTHE AND FARMINGTON.

MOZ001>031-035>038-043-044-053-054-200800-
...NORTHERN AND WESTERN MISSOURI...

CITY           SKY/WX    TMP DP  RH WIND       PRES   REMARKS
KANSAS CTY INT CLOUDY    62  55  77 SE13      29.87F
KANSAS C DTWN  CLOUDY    65  56  72 SE14      29.87F
LEE`S SUMMIT   MOCLDY    62  56  80 SE15      29.89F
ST JOSEPH      CLOUDY    59  54  83 S8        29.86F
CHILLICOTHE      N/A     62  54  74 S9        29.93S
KIRKSVILLE     MOCLDY    54  49  83 S7        29.96S

$$
MOZ066>068-077>081-088>096-101>105-200800-
...SOUTHWEST MISSOURI...

CITY           SKY/WX    TMP DP  RH WIND       PRES   REMARKS
SPRINGFIELD    MOCLDY    60  56  86 SE17      29.97R
JOPLIN         CLOUDY    63  56  78 SE13      29.90F
BRANSON        CLOUDY    59  57  94 SE13      30.01S

$$
MOZ032>034-039>042-045>050-055>058-069>072-200800-
...CENTRAL MISSOURI...

CITY           SKY/WX    TMP DP  RH WIND       PRES   REMARKS
COLUMBIA       PTCLDY    59  55  87 S13       29.99S
JEFFERSON CITY PTCLDY    60  54  80 SE6       29.99S
ROLLA          CLEAR     58  55  90 S10       30.00F
SEDALIA        CLEAR     61  56  83 SE14      29.96F
WHITEMAN AFB   CLOUDY    60  60 100 S12       29.92F
WARRENSBURG    CLOUDY    61  54  77 SE13      29.93S
OSAGE BEACH    CLEAR     60  55  83 SE7       30.00R

$$
MOZ051-052-059>065-200800-
...EAST CENTRAL MISSOURI...

CITY           SKY/WX    TMP DP  RH WIND       PRES   REMARKS
ST LOUIS INTL  CLOUDY    58  53  84 SE9       30.04F
SPIRIT OF STL  CLOUDY    54  53  97 E5        30.02F
ST CHARLES     CLOUDY    48  48 100 E9        30.03F FOG

$$
MOZ072>076-082>087-097>100-106>115-200800-
...SOUTH CENTRAL AND SOUTHEAST MISSOURI...

CITY           SKY/WX    TMP DP  RH WIND       PRES   REMARKS
CAPE GIRARDEAU FOG       46  45  96 CALM      30.07F VSB 1/2
FARMINGTON     CLEAR     53  52  96 SE7       30.06F FOG
POPLAR BLUFF   FOG       52  52 100 CALM      30.05F VSB 1/2
WEST PLAINS    PTCLDY    56  54  93 SE3       30.05S

$$



USA.gov is the U.S. government's official web portal to all federal, state and local government web resources and services.